| time (UTC) | temp F | wind direction | speed knots | gust knots | rain 1hr in | rain 24hr in | rain mn in | humidity % | barometer mb |
| 20260507144502 | 72 | 110 | 1.7 | 6.1 | 0.00 | 0.00 | 0.00 | 62 | 1016.2 |
| 20260507144002 | 71 | 129 | 1.7 | 6.1 | 0.00 | 0.00 | 0.00 | 62 | 1016.2 |
| 20260507143523 | 71 | 116 | 1.7 | 6.1 | 0.00 | 0.00 | 0.00 | 62 | 1016.3 |
| 20260507143002 | 71 | 128 | 1.7 | 7.0 | 0.00 | 0.00 | 0.00 | 61 | 1016.3 |
| 20260507142502 | 72 | 118 | 1.7 | 7.0 | 0.00 | 0.00 | 0.00 | 60 | 1016.3 |
| 20260507142002 | 72 | 93 | 2.6 | 6.1 | 0.00 | 0.00 | 0.00 | 60 | 1016.3 |
| 20260507141502 | 72 | 111 | 2.6 | 6.1 | 0.00 | 0.00 | 0.00 | 62 | 1016.3 |
| 20260507141002 | 72 | 114 | 1.7 | 6.1 | 0.00 | 0.00 | 0.00 | 62 | 1016.5 |
| 20260507140502 | 71 | 107 | 1.7 | 6.1 | 0.00 | 0.00 | 0.00 | 64 | 1016.5 |
| 20260507140003 | 71 | 126 | 1.7 | 6.1 | 0.00 | 0.00 | 0.00 | 64 | 1016.4 |
| 20260507135523 | 71 | 148 | 2.6 | 6.1 | 0.00 | 0.00 | 0.00 | 63 | 1016.5 |
| 20260507135002 | 71 | 137 | 1.7 | 6.1 | 0.00 | 0.00 | 0.00 | 63 | 1016.5 |
| 20260507134502 | 72 | 112 | 1.7 | 6.1 | 0.00 | 0.00 | 0.00 | 62 | 1016.5 |
| 20260507134002 | 71 | 97 | 2.6 | 6.1 | 0.00 | 0.00 | 0.00 | 62 | 1016.5 |
| 20260507133502 | 71 | 92 | 1.7 | 5.2 | 0.00 | 0.00 | 0.00 | 62 | 1016.6 |
| 20260507133023 | 71 | 78 | 2.6 | 4.3 | 0.00 | 0.00 | 0.00 | 62 | 1016.6 |
| 20260507132523 | 72 | 83 | 2.6 | 5.2 | 0.00 | 0.00 | 0.00 | 63 | 1016.5 |
| 20260507132002 | 72 | 116 | 1.7 | 5.2 | 0.00 | 0.00 | 0.00 | 62 | 1016.6 |
| 20260507131502 | 72 | 99 | 1.7 | 5.2 | 0.00 | 0.00 | 0.00 | 63 | 1016.6 |
| 20260507131002 | 72 | 96 | 1.7 | 7.0 | 0.00 | 0.00 | 0.00 | 63 | 1016.6 |
| 20260507130502 | 71 | 93 | 1.7 | 7.0 | 0.00 | 0.00 | 0.00 | 63 | 1016.7 |
| 20260507130002 | 71 | 103 | 1.7 | 3.5 | 0.00 | 0.00 | 0.00 | 64 | 1016.7 |
| 20260507125502 | 71 | 113 | 1.7 | 4.3 | 0.00 | 0.00 | 0.00 | 63 | 1016.7 |
| 20260507125002 | 71 | 113 | 1.7 | 6.1 | 0.00 | 0.00 | 0.00 | 64 | 1016.7 |
| 20260507124523 | 70 | 104 | 1.7 | 6.1 | 0.00 | 0.00 | 0.00 | 64 | 1016.7 |
| 20260507124002 | 70 | 96 | 2.6 | 6.1 | 0.00 | 0.00 | 0.00 | 66 | 1016.7 |
| 20260507123502 | 70 | 114 | 2.6 | 6.1 | 0.00 | 0.00 | 0.00 | 65 | 1016.7 |
| 20260507123002 | 70 | 122 | 1.7 | 5.2 | 0.00 | 0.00 | 0.00 | 64 | 1016.8 |
| 20260507122502 | 71 | 116 | 1.7 | 6.1 | 0.00 | 0.00 | 0.00 | 63 | 1016.8 |
| 20260507122023 | 71 | 138 | 1.7 | 6.1 | 0.00 | 0.00 | 0.00 | 63 | 1016.8 |
| 20260507121524 | 71 | 113 | 1.7 | 6.1 | 0.00 | 0.00 | 0.00 | 63 | 1016.8 |
| 20260507121002 | 71 | 90 | 2.6 | 6.1 | 0.00 | 0.00 | 0.00 | 64 | 1016.8 |
| 20260507120502 | 71 | 97 | 1.7 | 6.1 | 0.00 | 0.00 | 0.00 | 63 | 1016.8 |
| 20260507120002 | 71 | 104 | 1.7 | 4.3 | 0.00 | 0.00 | 0.00 | 64 | 1016.8 |
| 20260507115502 | 71 | 103 | 1.7 | 4.3 | 0.00 | 0.00 | 0.00 | 64 | 1016.8 |
| 20260507115002 | 71 | 106 | 1.7 | 5.2 | 0.00 | 0.00 | 0.00 | 64 | 1016.9 |
| 20260507114502 | 70 | 107 | 2.6 | 5.2 | 0.00 | 0.00 | 0.00 | 64 | 1016.8 |
| 20260507114023 | 70 | 113 | 1.7 | 5.2 | 0.00 | 0.00 | 0.00 | 64 | 1016.9 |
| 20260507113502 | 70 | 101 | 1.7 | 5.2 | 0.00 | 0.00 | 0.00 | 65 | 1016.8 |
| 20260507113024 | 70 | 95 | 1.7 | 6.1 | 0.00 | 0.00 | 0.00 | 67 | 1016.9 |
| 20260507112502 | 70 | 133 | 1.7 | 6.1 | 0.00 | 0.00 | 0.00 | 67 | 1016.9 |
| 20260507112002 | 69 | 129 | 2.6 | 7.0 | 0.00 | 0.00 | 0.00 | 66 | 1016.9 |
| 20260507111503 | 69 | 123 | 2.6 | 8.7 | 0.00 | 0.00 | 0.00 | 68 | 1017.0 |
| 20260507111023 | 69 | 122 | 1.7 | 8.7 | 0.00 | 0.00 | 0.00 | 67 | 1016.9 |
| 20260507110502 | 69 | 125 | 1.7 | 5.2 | 0.00 | 0.00 | 0.00 | 68 | 1016.9 |
| 20260507110002 | 68 | 128 | 1.7 | 7.8 | 0.00 | 0.00 | 0.00 | 68 | 1016.9 |
| 20260507105502 | 68 | 119 | 1.7 | 7.8 | 0.00 | 0.00 | 0.00 | 68 | 1016.9 |
| 20260507105023 | 68 | 119 | 1.7 | 6.1 | 0.00 | 0.00 | 0.00 | 69 | 1016.8 |
| 20260507104502 | 67 | 114 | 1.7 | 7.0 | 0.00 | 0.00 | 0.00 | 70 | 1016.9 |
| 20260507104003 | 67 | 128 | 1.7 | 7.0 | 0.00 | 0.00 | 0.00 | 69 | 1016.9 |
| 20260507103502 | 66 | 142 | 1.7 | 4.3 | 0.00 | 0.00 | 0.00 | 70 | 1016.9 |
| 20260507103002 | 66 | 130 | 1.7 | 5.2 | 0.00 | 0.00 | 0.00 | 70 | 1016.9 |
| 20260507102502 | 65 | 110 | 1.7 | 5.2 | 0.00 | 0.00 | 0.00 | 70 | 1016.9 |
| 20260507102002 | 65 | 119 | 1.7 | 5.2 | 0.00 | 0.00 | 0.00 | 71 | 1016.8 |
| 20260507101502 | 65 | 121 | 1.7 | 6.1 | 0.00 | 0.00 | 0.00 | 70 | 1016.9 |
| 20260507101002 | 64 | 110 | 1.7 | 6.1 | 0.00 | 0.00 | 0.00 | 70 | 1016.8 |
| 20260507100503 | 64 | 110 | 1.7 | 6.1 | 0.00 | 0.00 | 0.00 | 71 | 1016.8 |
| 20260507100003 | 64 | 115 | 1.7 | 6.1 | 0.00 | 0.00 | 0.00 | 71 | 1016.9 |
| 20260507095502 | 64 | 122 | 1.7 | 6.1 | 0.00 | 0.00 | 0.00 | 71 | 1016.8 |
| 20260507095002 | 64 | 97 | 1.7 | 6.1 | 0.00 | 0.00 | 0.00 | 71 | 1016.8 |
| 20260507094523 | 63 | 87 | 1.7 | 6.1 | 0.00 | 0.00 | 0.00 | 72 | 1016.8 |
| 20260507094002 | 63 | 91 | 2.6 | 6.1 | 0.00 | 0.00 | 0.00 | 72 | 1016.7 |
| 20260507093502 | 62 | 95 | 1.7 | 6.1 | 0.00 | 0.00 | 0.00 | 73 | 1016.7 |
| 20260507093002 | 62 | 101 | 1.7 | 3.5 | 0.00 | 0.00 | 0.00 | 73 | 1016.7 |
| 20260507092502 | 62 | 95 | 1.7 | 5.2 | 0.00 | 0.00 | 0.00 | 73 | 1016.7 |
| 20260507092003 | 61 | 89 | 2.6 | 5.2 | 0.00 | 0.00 | 0.00 | 74 | 1016.7 |
| 20260507091503 | 61 | 89 | 1.7 | 5.2 | 0.00 | 0.00 | 0.00 | 75 | 1016.8 |
| 20260507091002 | 60 | 90 | 1.7 | 5.2 | 0.00 | 0.00 | 0.00 | 76 | 1016.7 |
| 20260507090502 | 60 | 89 | 1.7 | 5.2 | 0.00 | 0.00 | 0.00 | 75 | 1016.8 |
| 20260507090023 | 60 | 90 | 1.7 | 5.2 | 0.00 | 0.00 | 0.00 | 75 | 1016.7 |
| 20260507085502 | 60 | 89 | 2.6 | 5.2 | 0.00 | 0.00 | 0.00 | 76 | 1016.8 |
| 20260507085002 | 60 | 89 | 1.7 | 5.2 | 0.00 | 0.00 | 0.00 | 77 | 1016.8 |
| 20260507084523 | 59 | 91 | 1.7 | 6.1 | 0.00 | 0.00 | 0.00 | 78 | 1016.7 |
| 20260507084002 | 58 | 95 | 1.7 | 6.1 | 0.00 | 0.00 | 0.00 | 79 | 1016.8 |
| 20260507083502 | 58 | 95 | 1.7 | 3.5 | 0.00 | 0.00 | 0.00 | 79 | 1016.9 |
| 20260507083002 | 57 | 96 | 1.7 | 3.5 | 0.00 | 0.00 | 0.00 | 79 | 1016.8 |
| 20260507082524 | 57 | 93 | 1.7 | 3.5 | 0.00 | 0.00 | 0.00 | 80 | 1016.9 |
| 20260507082003 | 56 | 94 | 1.7 | 3.5 | 0.00 | 0.00 | 0.00 | 80 | 1016.7 |
| 20260507081524 | 56 | 98 | 1.7 | 3.5 | 0.00 | 0.00 | 0.00 | 80 | 1016.6 |
| 20260507081003 | 56 | 94 | 1.7 | 3.5 | 0.00 | 0.00 | 0.00 | 80 | 1016.6 |
| 20260507080503 | 56 | 95 | 1.7 | 3.5 | 0.00 | 0.00 | 0.00 | 81 | 1016.7 |
| 20260507080003 | 55 | 88 | 1.7 | 3.5 | 0.00 | 0.00 | 0.00 | 81 | 1016.7 |
| 20260507075523 | 55 | 80 | 1.7 | 3.5 | 0.00 | 0.00 | 0.00 | 81 | 1016.6 |
| 20260507075023 | 55 | 84 | 0.9 | 3.5 | 0.00 | 0.00 | 0.00 | 81 | 1016.6 |
| 20260507074502 | 54 | 80 | 1.7 | 3.5 | 0.00 | 0.00 | 0.00 | 81 | 1016.5 |
| 20260507074024 | 54 | 81 | 1.7 | 3.5 | 0.00 | 0.00 | 0.00 | 82 | 1016.4 |
| 20260507073503 | 54 | 88 | 0.9 | 3.5 | 0.00 | 0.00 | 0.00 | 82 | 1016.5 |
| 20260507073002 | 54 | 71 | 0.9 | 4.3 | 0.00 | 0.00 | 0.00 | 82 | 1016.4 |
| 20260507072523 | 53 | 73 | 0.9 | 4.3 | 0.00 | 0.00 | 0.00 | 82 | 1016.4 |
| 20260507072002 | 53 | 78 | 0.9 | 2.6 | 0.00 | 0.00 | 0.00 | 82 | 1016.4 |
| 20260507071502 | 52 | 76 | 0.9 | 2.6 | 0.00 | 0.00 | 0.00 | 82 | 1016.3 |
| 20260507071003 | 52 | 76 | 0.9 | 2.6 | 0.00 | 0.00 | 0.00 | 82 | 1016.3 |
| 20260507070524 | 52 | 77 | 0.9 | 2.6 | 0.00 | 0.00 | 0.00 | 82 | 1016.2 |
| 20260507070024 | 51 | 52 | 0.9 | 2.6 | 0.00 | 0.00 | 0.00 | 81 | 1016.3 |
| 20260507065502 | 51 | 25 | 0.0 | 2.6 | 0.00 | 0.00 | 0.00 | 81 | 1016.4 |
| 20260507065002 | 50 | 13 | 0.9 | 4.3 | 0.00 | 0.00 | 0.00 | 81 | 1016.3 |
| 20260507064502 | 50 | 18 | 0.9 | 4.3 | 0.00 | 0.00 | 0.00 | 81 | 1016.4 |
| 20260507064023 | 50 | 38 | 0.9 | 3.5 | 0.00 | 0.00 | 0.00 | 81 | 1016.5 |
| 20260507063502 | 49 | 35 | 0.9 | 3.5 | 0.00 | 0.00 | 0.00 | 81 | 1016.5 |
| 20260507063003 | 49 | 6 | 0.9 | 3.5 | 0.00 | 0.00 | 0.00 | 81 | 1016.4 |
| 20260507062502 | 49 | 5 | 0.9 | 3.5 | 0.00 | 0.00 | 0.00 | 80 | 1016.3 |
| 20260507062023 | 48 | 7 | 0.9 | 3.5 | 0.00 | 0.00 | 0.00 | 80 | 1016.4 |
| 20260507061502 | 48 | 3 | 0.9 | 4.3 | 0.00 | 0.00 | 0.00 | 80 | 1016.3 |
| 20260507061003 | 48 | 2 | 0.9 | 4.3 | 0.00 | 0.00 | 0.00 | 80 | 1016.3 |
| 20260507060503 | 48 | 356 | 0.9 | 2.6 | 0.00 | 0.00 | 0.00 | 80 | 1016.2 |
| 20260507060003 | 48 | 10 | 0.9 | 3.5 | 0.00 | 0.00 | 0.00 | 79 | 1016.3 |
| 20260507055503 | 48 | 13 | 0.9 | 3.5 | 0.00 | 0.00 | 0.00 | 79 | 1016.2 |
| 20260507055003 | 48 | 11 | 0.9 | 3.5 | 0.00 | 0.00 | 0.00 | 79 | 1016.0 |
| 20260507054503 | 48 | 15 | 0.9 | 3.5 | 0.00 | 0.00 | 0.00 | 79 | 1016.0 |
| 20260507054024 | 48 | 24 | 0.9 | 3.5 | 0.00 | 0.00 | 0.00 | 79 | 1016.0 |
| 20260507053503 | 48 | 23 | 0.9 | 4.3 | 0.00 | 0.00 | 0.00 | 79 | 1016.0 |
| 20260507053003 | 48 | 17 | 0.9 | 4.3 | 0.00 | 0.00 | 0.00 | 78 | 1015.9 |
| 20260507052523 | 48 | 11 | 0.9 | 3.5 | 0.00 | 0.00 | 0.00 | 78 | 1015.8 |
| 20260507052002 | 48 | 15 | 0.9 | 2.6 | 0.00 | 0.00 | 0.00 | 78 | 1015.9 |
| 20260507051502 | 48 | 15 | 0.9 | 3.5 | 0.00 | 0.00 | 0.00 | 78 | 1015.8 |
| 20260507051003 | 48 | 8 | 0.9 | 4.3 | 0.00 | 0.00 | 0.00 | 78 | 1015.9 |
| 20260507050503 | 48 | 13 | 0.9 | 4.3 | 0.00 | 0.00 | 0.00 | 78 | 1015.8 |
| 20260507050003 | 48 | 25 | 0.9 | 4.3 | 0.00 | 0.00 | 0.00 | 78 | 1015.9 |
| 20260507045503 | 48 | 35 | 0.9 | 3.5 | 0.00 | 0.00 | 0.00 | 78 | 1015.8 |
| 20260507045003 | 48 | 21 | 0.9 | 4.3 | 0.00 | 0.00 | 0.00 | 78 | 1015.7 |
| 20260507044524 | 48 | 15 | 0.9 | 4.3 | 0.00 | 0.00 | 0.00 | 77 | 1015.7 |
| 20260507044024 | 48 | 27 | 0.9 | 4.3 | 0.00 | 0.00 | 0.00 | 77 | 1015.6 |
| 20260507043524 | 48 | 32 | 1.7 | 3.5 | 0.00 | 0.00 | 0.00 | 77 | 1015.6 |
| 20260507043024 | 48 | 29 | 0.9 | 3.5 | 0.00 | 0.00 | 0.00 | 77 | 1015.6 |
| 20260507042523 | 48 | 18 | 0.9 | 4.3 | 0.00 | 0.00 | 0.00 | 77 | 1015.6 |
| 20260507042002 | 48 | 30 | 0.9 | 4.3 | 0.00 | 0.00 | 0.00 | 77 | 1015.6 |
| 20260507041502 | 48 | 22 | 0.9 | 6.1 | 0.00 | 0.00 | 0.00 | 77 | 1015.6 |
| 20260507041003 | 48 | 30 | 0.9 | 6.1 | 0.00 | 0.00 | 0.00 | 77 | 1015.7 |
| 20260507040503 | 48 | 35 | 0.9 | 4.3 | 0.00 | 0.00 | 0.00 | 77 | 1015.6 |
| 20260507040003 | 48 | 14 | 1.7 | 4.3 | 0.00 | 0.00 | 0.00 | 77 | 1015.6 |
| 20260507035503 | 48 | 8 | 1.7 | 7.0 | 0.00 | 0.00 | 0.00 | 77 | 1015.6 |
| 20260507035003 | 48 | 16 | 1.7 | 7.0 | 0.00 | 0.00 | 0.00 | 77 | 1015.6 |
| 20260507034503 | 48 | 27 | 0.9 | 7.0 | 0.00 | 0.00 | 0.00 | 77 | 1015.6 |
| 20260507034003 | 48 | 24 | 0.9 | 3.5 | 0.00 | 0.00 | 0.00 | 77 | 1015.6 |
| 20260507033503 | 48 | 24 | 0.9 | 3.5 | 0.00 | 0.00 | 0.00 | 77 | 1015.6 |
| 20260507033003 | 48 | 24 | 0.9 | 3.5 | 0.00 | 0.00 | 0.00 | 77 | 1015.6 |
| 20260507032503 | 48 | 20 | 0.9 | 3.5 | 0.00 | 0.00 | 0.00 | 77 | 1015.6 |
| 20260507032003 | 48 | 11 | 0.9 | 2.6 | 0.00 | 0.00 | 0.00 | 77 | 1015.6 |
| 20260507031502 | 48 | 5 | 0.9 | 4.3 | 0.00 | 0.00 | 0.00 | 77 | 1015.6 |
| 20260507031002 | 48 | 7 | 0.9 | 4.3 | 0.00 | 0.00 | 0.00 | 77 | 1015.6 |
| 20260507030503 | 48 | 10 | 0.9 | 2.6 | 0.00 | 0.00 | 0.00 | 77 | 1015.6 |
| 20260507030003 | 49 | 24 | 0.9 | 2.6 | 0.00 | 0.00 | 0.00 | 77 | 1015.6 |
| 20260507025503 | 49 | 30 | 0.9 | 2.6 | 0.00 | 0.00 | 0.00 | 77 | 1015.5 |
| 20260507025024 | 49 | 31 | 0.9 | 2.6 | 0.00 | 0.00 | 0.00 | 77 | 1015.5 |
| 20260507024503 | 49 | 31 | 0.0 | 2.6 | 0.00 | 0.00 | 0.00 | 77 | 1015.5 |
| 20260507024024 | 49 | 357 | 0.9 | 2.6 | 0.00 | 0.00 | 0.00 | 77 | 1015.4 |
| 20260507023502 | 49 | 352 | 0.9 | 4.3 | 0.00 | 0.00 | 0.00 | 77 | 1015.4 |
| 20260507023002 | 49 | 357 | 0.9 | 4.3 | 0.00 | 0.00 | 0.00 | 78 | 1015.4 |
| 20260507022503 | 49 | 4 | 1.7 | 4.3 | 0.00 | 0.00 | 0.00 | 78 | 1015.4 |
| 20260507022002 | 49 | 6 | 1.7 | 4.3 | 0.00 | 0.00 | 0.00 | 78 | 1015.5 |
| 20260507021503 | 50 | 15 | 0.9 | 3.5 | 0.00 | 0.00 | 0.00 | 78 | 1015.4 |
| 20260507021003 | 50 | 17 | 0.9 | 3.5 | 0.00 | 0.00 | 0.00 | 78 | 1015.4 |
| 20260507020524 | 50 | 20 | 0.9 | 3.5 | 0.00 | 0.00 | 0.00 | 78 | 1015.5 |
| 20260507020024 | 50 | 27 | 0.0 | 2.6 | 0.00 | 0.00 | 0.00 | 79 | 1015.4 |
| 20260507015503 | 50 | 9 | 0.9 | 2.6 | 0.00 | 0.00 | 0.00 | 79 | 1015.5 |
| 20260507015003 | 50 | 3 | 0.9 | 3.5 | 0.00 | 0.00 | 0.00 | 79 | 1015.5 |
| 20260507014503 | 50 | 3 | 0.9 | 3.5 | 0.00 | 0.00 | 0.00 | 79 | 1015.5 |
| 20260507014002 | 50 | 6 | 0.0 | 1.7 | 0.00 | 0.00 | 0.00 | 79 | 1015.4 |
| 20260507013503 | 50 | 358 | 0.9 | 2.6 | 0.00 | 0.00 | 0.00 | 79 | 1015.5 |
| 20260507013002 | 50 | 353 | 0.9 | 2.6 | 0.00 | 0.00 | 0.00 | 78 | 1015.5 |
| 20260507012502 | 50 | 336 | 0.0 | 2.6 | 0.00 | 0.00 | 0.00 | 78 | 1015.5 |
| 20260507012002 | 50 | 0 | 0.0 | 0.0 | 0.00 | 0.00 | 0.00 | 78 | 1015.5 |
| 20260507011524 | 50 | 0 | 0.0 | 0.0 | 0.00 | 0.00 | 0.00 | 78 | 1015.6 |
| 20260507011003 | 50 | 0 | 0.0 | 0.0 | 0.00 | 0.00 | 0.00 | 78 | 1015.5 |
| 20260507010524 | 50 | 336 | 0.0 | 0.9 | 0.00 | 0.00 | 0.00 | 78 | 1015.5 |
| 20260507010003 | 50 | 336 | 0.0 | 1.7 | 0.00 | 0.00 | 0.00 | 79 | 1015.5 |
| 20260507005503 | 50 | 336 | 0.0 | 1.7 | 0.00 | 0.00 | 0.00 | 79 | 1015.5 |
| 20260507005003 | 50 | 0 | 0.0 | 0.0 | 0.00 | 0.00 | 0.00 | 79 | 1015.4 |
| 20260507004503 | 50 | 0 | 0.0 | 0.0 | 0.00 | 0.00 | 0.00 | 79 | 1015.5 |
| 20260507004003 | 51 | 336 | 0.0 | 0.9 | 0.00 | 0.00 | 0.00 | 79 | 1015.5 |
| 20260507003503 | 51 | 336 | 0.0 | 0.9 | 0.00 | 0.00 | 0.00 | 79 | 1015.6 |
| 20260507003003 | 51 | 335 | 0.0 | 0.9 | 0.00 | 0.00 | 0.00 | 79 | 1015.6 |
| 20260507002503 | 51 | 335 | 0.0 | 1.7 | 0.00 | 0.00 | 0.00 | 79 | 1015.6 |
| 20260507002003 | 51 | 330 | 0.0 | 1.7 | 0.00 | 0.00 | 0.00 | 79 | 1015.6 |
| 20260507001503 | 51 | 326 | 0.0 | 1.7 | 0.00 | 0.00 | 0.00 | 79 | 1015.6 |
| 20260507001003 | 51 | 322 | 0.0 | 2.6 | 0.00 | 0.00 | 0.00 | 79 | 1015.6 |
| 20260507000503 | 51 | 321 | 0.9 | 2.6 | 0.00 | 0.00 | 0.00 | 79 | 1015.6 |
| 20260507000003 | 51 | 321 | 0.0 | 2.6 | 0.00 | 0.00 | 0.00 | 79 | 1015.7 |
| 20260506235502 | 51 | 330 | 0.0 | 0.9 | 0.00 | 0.00 | 0.00 | 79 | 1015.6 |
| 20260506235003 | 51 | 330 | 0.0 | 1.7 | 0.00 | 0.00 | 0.00 | 79 | 1015.7 |
| 20260506234503 | 51 | 330 | 0.0 | 1.7 | 0.00 | 0.00 | 0.00 | 79 | 1015.6 |
| 20260506234003 | 51 | 329 | 0.0 | 0.9 | 0.00 | 0.00 | 0.00 | 79 | 1015.6 |
| 20260506233503 | 51 | 329 | 0.0 | 0.9 | 0.00 | 0.00 | 0.00 | 79 | 1015.5 |
| 20260506233024 | 51 | 327 | 0.0 | 2.6 | 0.00 | 0.00 | 0.00 | 78 | 1015.6 |
| 20260506232503 | 51 | 326 | 0.0 | 2.6 | 0.00 | 0.00 | 0.00 | 78 | 1015.6 |
| 20260506232024 | 51 | 0 | 0.0 | 0.0 | 0.00 | 0.00 | 0.00 | 78 | 1015.6 |
| 20260506231503 | 51 | 0 | 0.0 | 0.0 | 0.00 | 0.00 | 0.00 | 78 | 1015.6 |
| 20260506231003 | 51 | 0 | 0.0 | 0.0 | 0.00 | 0.00 | 0.00 | 78 | 1015.5 |
| 20260506230503 | 51 | 0 | 0.0 | 0.0 | 0.00 | 0.00 | 0.00 | 78 | 1015.5 |
| 20260506230003 | 51 | 0 | 0.0 | 0.0 | 0.00 | 0.00 | 0.00 | 78 | 1015.5 |
| 20260506225503 | 51 | 0 | 0.0 | 0.0 | 0.00 | 0.00 | 0.00 | 78 | 1015.6 |
| 20260506225003 | 51 | 0 | 0.0 | 0.0 | 0.00 | 0.00 | 0.00 | 78 | 1015.6 |
| 20260506224503 | 51 | 0 | 0.0 | 0.0 | 0.00 | 0.00 | 0.00 | 78 | 1015.6 |
| 20260506224003 | 51 | 0 | 0.0 | 0.0 | 0.00 | 0.00 | 0.00 | 78 | 1015.6 |
| 20260506223503 | 52 | 0 | 0.0 | 0.0 | 0.00 | 0.00 | 0.00 | 78 | 1015.6 |
| 20260506223003 | 52 | 0 | 0.0 | 0.0 | 0.00 | 0.00 | 0.00 | 78 | 1015.6 |
| 20260506222503 | 52 | 0 | 0.0 | 0.0 | 0.00 | 0.00 | 0.00 | 78 | 1015.6 |
| 20260506222003 | 52 | 0 | 0.0 | 0.0 | 0.00 | 0.00 | 0.00 | 78 | 1015.6 |
| 20260506221503 | 52 | 0 | 0.0 | 0.0 | 0.00 | 0.00 | 0.00 | 78 | 1015.6 |
| 20260506221003 | 52 | 0 | 0.0 | 0.0 | 0.00 | 0.00 | 0.00 | 78 | 1015.5 |
| 20260506220503 | 52 | 0 | 0.0 | 0.0 | 0.00 | 0.00 | 0.00 | 78 | 1015.5 |
| 20260506220003 | 52 | 0 | 0.0 | 0.0 | 0.00 | 0.00 | 0.00 | 78 | 1015.6 |
| 20260506215503 | 52 | 0 | 0.0 | 0.0 | 0.00 | 0.00 | 0.00 | 78 | 1015.5 |
| 20260506215024 | 52 | 0 | 0.0 | 0.0 | 0.00 | 0.00 | 0.00 | 77 | 1015.5 |
| 20260506214503 | 52 | 0 | 0.0 | 0.0 | 0.00 | 0.00 | 0.00 | 77 | 1015.5 |
| 20260506214003 | 52 | 0 | 0.0 | 0.0 | 0.00 | 0.00 | 0.00 | 77 | 1015.4 |
| 20260506213503 | 52 | 0 | 0.0 | 0.0 | 0.00 | 0.00 | 0.00 | 77 | 1015.4 |
| 20260506213003 | 52 | 0 | 0.0 | 0.0 | 0.00 | 0.00 | 0.00 | 77 | 1015.5 |
| 20260506212503 | 52 | 0 | 0.0 | 0.0 | 0.00 | 0.00 | 0.00 | 77 | 1015.4 |
| 20260506212003 | 52 | 248 | 0.0 | 1.7 | 0.00 | 0.00 | 0.00 | 77 | 1015.5 |
| 20260506211503 | 52 | 248 | 0.0 | 2.6 | 0.00 | 0.00 | 0.00 | 76 | 1015.5 |
| 20260506211003 | 53 | 249 | 0.0 | 2.6 | 0.00 | 0.00 | 0.00 | 76 | 1015.5 |
| 20260506210502 | 53 | 250 | 0.0 | 2.6 | 0.00 | 0.00 | 0.00 | 76 | 1015.5 |
| 20260506210003 | 53 | 253 | 0.9 | 2.6 | 0.00 | 0.00 | 0.00 | 76 | 1015.3 |
| 20260506205503 | 53 | 246 | 0.9 | 2.6 | 0.00 | 0.00 | 0.00 | 75 | 1015.4 |
| 20260506205003 | 53 | 243 | 0.9 | 3.5 | 0.00 | 0.00 | 0.00 | 75 | 1015.3 |
| 20260506204503 | 53 | 241 | 1.7 | 3.5 | 0.00 | 0.00 | 0.00 | 75 | 1015.2 |
| 20260506204024 | 53 | 240 | 1.7 | 3.5 | 0.00 | 0.00 | 0.00 | 75 | 1015.2 |
| 20260506203503 | 53 | 244 | 1.7 | 3.5 | 0.00 | 0.00 | 0.00 | 75 | 1015.2 |
| 20260506203003 | 53 | 246 | 1.7 | 3.5 | 0.00 | 0.00 | 0.00 | 75 | 1015.1 |
| 20260506202503 | 53 | 242 | 0.9 | 2.6 | 0.00 | 0.00 | 0.00 | 75 | 1015.2 |
| 20260506202024 | 53 | 237 | 0.9 | 2.6 | 0.00 | 0.00 | 0.00 | 74 | 1015.2 |
| 20260506201503 | 53 | 241 | 0.9 | 2.6 | 0.00 | 0.00 | 0.00 | 74 | 1015.1 |
| 20260506201003 | 53 | 237 | 1.7 | 5.2 | 0.00 | 0.00 | 0.00 | 74 | 1015.1 |
| 20260506200503 | 53 | 236 | 1.7 | 5.2 | 0.00 | 0.00 | 0.00 | 74 | 1015.1 |
| 20260506200024 | 53 | 240 | 1.7 | 3.5 | 0.00 | 0.00 | 0.00 | 74 | 1015.0 |
| 20260506195503 | 53 | 241 | 0.9 | 2.6 | 0.00 | 0.00 | 0.00 | 74 | 1015.0 |
| 20260506195003 | 54 | 239 | 0.9 | 3.5 | 0.00 | 0.00 | 0.00 | 74 | 1015.0 |
| 20260506194504 | 54 | 232 | 0.9 | 3.5 | 0.00 | 0.00 | 0.00 | 74 | 1015.0 |
| 20260506194003 | 54 | 230 | 0.9 | 3.5 | 0.00 | 0.00 | 0.00 | 74 | 1014.9 |
| 20260506193503 | 54 | 236 | 1.7 | 4.3 | 0.00 | 0.00 | 0.00 | 74 | 1014.8 |
| 20260506193003 | 54 | 234 | 1.7 | 4.3 | 0.00 | 0.00 | 0.00 | 73 | 1014.9 |
| 20260506192503 | 54 | 228 | 1.7 | 4.3 | 0.00 | 0.00 | 0.00 | 73 | 1014.8 |
| 20260506192024 | 54 | 226 | 1.7 | 6.1 | 0.00 | 0.00 | 0.00 | 73 | 1014.7 |
| 20260506191503 | 54 | 229 | 2.6 | 6.1 | 0.00 | 0.00 | 0.00 | 73 | 1014.8 |
| 20260506191003 | 54 | 231 | 1.7 | 5.2 | 0.00 | 0.00 | 0.00 | 73 | 1014.7 |
| 20260506190503 | 54 | 237 | 1.7 | 4.3 | 0.00 | 0.00 | 0.00 | 73 | 1014.6 |
| 20260506190003 | 54 | 241 | 1.7 | 5.2 | 0.00 | 0.00 | 0.00 | 73 | 1014.6 |
| 20260506185503 | 54 | 240 | 1.7 | 5.2 | 0.00 | 0.00 | 0.00 | 72 | 1014.5 |
| 20260506185003 | 54 | 236 | 1.7 | 4.3 | 0.00 | 0.00 | 0.00 | 72 | 1014.5 |
| 20260506184503 | 55 | 223 | 1.7 | 5.2 | 0.00 | 0.00 | 0.00 | 72 | 1014.5 |
| 20260506184003 | 55 | 214 | 2.6 | 6.1 | 0.00 | 0.00 | 0.00 | 72 | 1014.5 |
| 20260506183503 | 55 | 218 | 2.6 | 6.1 | 0.00 | 0.00 | 0.00 | 72 | 1014.5 |
| 20260506183003 | 55 | 221 | 2.6 | 4.3 | 0.00 | 0.00 | 0.00 | 71 | 1014.4 |
| 20260506182503 | 55 | 217 | 2.6 | 5.2 | 0.00 | 0.00 | 0.00 | 71 | 1014.4 |
| 20260506182003 | 55 | 220 | 2.6 | 5.2 | 0.00 | 0.00 | 0.00 | 70 | 1014.4 |
| 20260506181524 | 56 | 222 | 2.6 | 6.1 | 0.00 | 0.00 | 0.00 | 70 | 1014.4 |
| 20260506181003 | 56 | 226 | 2.6 | 6.1 | 0.00 | 0.00 | 0.00 | 70 | 1014.4 |
| 20260506180503 | 56 | 226 | 2.6 | 6.1 | 0.00 | 0.00 | 0.00 | 69 | 1014.3 |
| 20260506180004 | 56 | 223 | 2.6 | 4.3 | 0.00 | 0.00 | 0.00 | 69 | 1014.3 |
| 20260506175524 | 56 | 230 | 2.6 | 4.3 | 0.00 | 0.00 | 0.00 | 68 | 1014.3 |
| 20260506175003 | 56 | 231 | 1.7 | 4.3 | 0.00 | 0.00 | 0.00 | 68 | 1014.3 |
| 20260506174503 | 56 | 216 | 1.7 | 5.2 | 0.00 | 0.00 | 0.00 | 68 | 1014.3 |
| 20260506174003 | 56 | 219 | 2.6 | 5.2 | 0.00 | 0.00 | 0.00 | 67 | 1014.2 |
| 20260506173503 | 57 | 222 | 1.7 | 3.5 | 0.00 | 0.00 | 0.00 | 67 | 1014.2 |
| 20260506173003 | 57 | 223 | 1.7 | 4.3 | 0.00 | 0.00 | 0.00 | 67 | 1014.1 |
| 20260506172524 | 57 | 214 | 2.6 | 6.1 | 0.00 | 0.00 | 0.00 | 66 | 1014.1 |
| 20260506172003 | 57 | 205 | 2.6 | 6.1 | 0.00 | 0.00 | 0.00 | 66 | 1014.1 |
| 20260506171503 | 57 | 221 | 2.6 | 5.2 | 0.00 | 0.00 | 0.00 | 64 | 1014.1 |
| 20260506171003 | 57 | 215 | 2.6 | 5.2 | 0.00 | 0.00 | 0.00 | 64 | 1014.1 |
| 20260506170503 | 57 | 207 | 2.6 | 5.2 | 0.00 | 0.00 | 0.00 | 64 | 1014.1 |
| 20260506170003 | 57 | 219 | 2.6 | 7.8 | 0.00 | 0.00 | 0.00 | 64 | 1014.1 |
| 20260506165503 | 58 | 222 | 2.6 | 7.8 | 0.00 | 0.00 | 0.00 | 63 | 1014.2 |
| 20260506165003 | 58 | 229 | 2.6 | 6.1 | 0.00 | 0.00 | 0.00 | 63 | 1014.2 |
| 20260506164524 | 58 | 219 | 2.6 | 6.1 | 0.00 | 0.00 | 0.00 | 62 | 1014.2 |
| 20260506164003 | 58 | 194 | 3.5 | 7.0 | 0.00 | 0.00 | 0.00 | 61 | 1014.2 |
| 20260506163503 | 58 | 186 | 3.5 | 7.8 | 0.00 | 0.00 | 0.00 | 60 | 1014.2 |
| 20260506163003 | 59 | 199 | 2.6 | 7.8 | 0.00 | 0.00 | 0.00 | 61 | 1014.2 |
| 20260506162503 | 59 | 217 | 2.6 | 5.2 | 0.00 | 0.00 | 0.00 | 61 | 1014.2 |
| 20260506162024 | 59 | 203 | 3.5 | 7.8 | 0.00 | 0.00 | 0.00 | 60 | 1014.2 |
| 20260506161524 | 60 | 197 | 3.5 | 7.8 | 0.00 | 0.00 | 0.00 | 60 | 1014.2 |
| 20260506161003 | 60 | 201 | 3.5 | 8.7 | 0.00 | 0.00 | 0.00 | 62 | 1014.2 |
| 20260506160503 | 60 | 197 | 3.5 | 8.7 | 0.00 | 0.00 | 0.00 | 62 | 1014.2 |
| 20260506160025 | 60 | 191 | 3.5 | 7.8 | 0.00 | 0.00 | 0.00 | 62 | 1014.2 |
| 20260506155503 | 61 | 187 | 4.3 | 7.8 | 0.00 | 0.00 | 0.00 | 62 | 1014.1 |
| 20260506155003 | 61 | 187 | 3.5 | 7.8 | 0.00 | 0.00 | 0.00 | 62 | 1014.2 |
| 20260506154503 | 61 | 196 | 2.6 | 7.0 | 0.00 | 0.00 | 0.00 | 63 | 1014.2 |
| 20260506154024 | 61 | 198 | 3.5 | 7.0 | 0.00 | 0.00 | 0.00 | 62 | 1014.2 |
| 20260506153524 | 61 | 204 | 3.5 | 7.0 | 0.00 | 0.00 | 0.00 | 61 | 1014.2 |
| 20260506153003 | 62 | 206 | 2.6 | 6.1 | 0.00 | 0.00 | 0.00 | 62 | 1014.3 |
| 20260506152503 | 62 | 196 | 3.5 | 6.1 | 0.00 | 0.00 | 0.00 | 61 | 1014.2 |
| 20260506152003 | 62 | 205 | 3.5 | 6.1 | 0.00 | 0.00 | 0.00 | 60 | 1014.2 |
| 20260506151503 | 63 | 205 | 3.5 | 7.8 | 0.00 | 0.00 | 0.00 | 59 | 1014.3 |
| 20260506151003 | 63 | 194 | 3.5 | 7.8 | 0.00 | 0.00 | 0.00 | 59 | 1014.3 |
| 20260506150503 | 63 | 196 | 3.5 | 7.0 | 0.00 | 0.00 | 0.00 | 58 | 1014.3 |
| 20260506150003 | 63 | 201 | 3.5 | 6.1 | 0.00 | 0.00 | 0.00 | 58 | 1014.2 |
| 20260506145503 | 63 | 216 | 3.5 | 7.0 | 0.00 | 0.00 | 0.00 | 60 | 1014.3 |
| 20260506145003 | 63 | 217 | 2.6 | 7.8 | 0.00 | 0.00 | 0.00 | 60 | 1014.4 |